[[{"header":{"parameterUnit":"m.s-1","parameterCategory":2,"la1":30.2991,"la2":30.254,"lo1":-89.0895,"lo2":-89.0444,"dy":0.0017,"dx":0.0017,"nx":28,"ny":28,"refTime":"2025-11-22T09:00:00:Z","depth":"0","parameterNumber":2,"parameterNumberName":"U-component_of_CURRENTS"},"data":[0,0,0,0,0,0,0,0,0,0,0,0,0,0,0,0,0,0,0,0,0,0,0,0,0,0,0,0,0,0,0,0,0,0,0,0,0,0,0,0,0,0,0,0,0,0,0,0,0,0,0,0,0,0,0,0,0,0,0.4092,0.4093,0,0.4154,0.4154,0.4154,0.412,0.4118,0.4117,0.4116,0.4115,0.4116,0.4117,0,0,0,0,0,0,0,0,0,0,0,0,0,0.401,0.401,0.4092,0.4093,0.4094,0.4154,0.4154,0.4154,0.412,0.4118,0.4117,0.4116,0.4114,0.4116,0.4117,0,0,0,0,0,0,0,0,0,0,0,0,0,0.405,0.4011,0.4091,0.4089,0.4089,0.4153,0.4154,0.4154,0.412,0.4118,0.4117,0.4115,0.4114,0.4116,0.4117,0.4162,0,0,0.4122,0.4123,0,0,0,0,0,0,0,0,0.4048,0.4052,0.4088,0.4089,0.409,0.4132,0.4125,0.4156,0.4121,0.4102,0.4116,0.4114,0.412,0.4121,0.4129,0.4162,0.4162,0.4122,0.4123,0.4124,0.4124,0,0,0,0,0,0,0,0.4045,0.405,0.411,0.4089,0.4091,0.4107,0.411,0.4131,0.4114,0.4104,0.4103,0.412,0.4119,0.4128,0.4129,0.4162,0.4122,0.4124,0.4125,0.4125,0.4304,0.4308,0,0,0,0,0,0,0.4048,0.4047,0.4108,0.4113,0.4071,0.411,0.4113,0.4116,0.4116,0.4116,0.4121,0.4118,0.4126,0.4127,0.4128,0.4224,0.4124,0.4125,0.4126,0.4301,0.4305,0.4309,0,0,0,0,0,0,0.4045,0.4052,0.4106,0.4087,0.4095,0.4114,0.4117,0.4118,0.4131,0.4131,0.4128,0.4134,0.4124,0.4126,0.4175,0.4221,0.4126,0.4127,0.4296,0.4302,0.4307,0.4387,0,0,0,0,0,0,0.4042,0.405,0.4055,0.4086,0.4097,0.4157,0.412,0.4121,0.4147,0.4143,0.4142,0.4139,0.4123,0.4173,0.4176,0.4222,0.4129,0.4291,0.4299,0.4306,0.438,0.4395,0.4408,0,0,0,0,0,0.4039,0.4059,0.4054,0.4062,0.4101,0.4159,0.4166,0.4169,0.4149,0.417,0.4178,0.4139,0.422,0.4177,0.418,0.4227,0.4288,0.4297,0.4305,0.4373,0.4392,0.4408,0,0,0,0,0,0,0.4028,0.4059,0.4054,0.4081,0.4122,0.4155,0.4179,0.4182,0.4205,0.4198,0.4183,0.4184,0.4251,0.4239,0.4191,0.4307,0.4251,0.4261,0.4302,0.4319,0.4333,0.4346,0.413,0,0,0,0,0,0.4029,0.4048,0.4086,0.4111,0.413,0.4156,0.4179,0.4187,0.4215,0.4221,0.4226,0.4246,0.4292,0.4302,0.4336,0.4389,0.4401,0.4428,0.4442,0.4453,0.4472,0.4548,0.457,0.4338,0.4337,0.4337,0,0,0.4034,0.4055,0.4065,0.4111,0.4135,0.4186,0.4164,0.4211,0.4256,0.4221,0.4277,0.4299,0.4324,0.4392,0.442,0.438,0.4529,0.4464,0.4473,0.4486,0.4559,0.4581,0.4601,0.4343,0.4342,0.4341,0,0,0.4066,0.4071,0.4099,0.4139,0.419,0.4216,0.4234,0.4279,0.4297,0.4362,0.4363,0.4417,0.4461,0.4498,0.452,0.4638,0.4611,0.4648,0.4712,0.4786,0.4805,0.4822,0.4863,0.4883,0.4641,0.4641,0.4641,0,0.4075,0.4105,0.4122,0.417,0.4208,0.4233,0.4285,0.4326,0.4382,0.4414,0.439,0.4511,0.4518,0.4626,0.4667,0.4667,0.4694,0.4635,0.4802,0.4819,0.4834,0.4873,0.4894,0.4646,0.4646,0.4645,0.4645,0,0.4124,0.4159,0.4187,0.4247,0.4294,0.4347,0.4406,0.4452,0.4473,0.4512,0.4616,0.4649,0.4712,0.4737,0.4733,0.4863,0.4842,0.4816,0.4748,0.4862,0.4896,0.4916,0.4653,0.4651,0.465,0.4649,0,0,0.4124,0.4203,0.4213,0.4248,0.4335,0.4379,0.4468,0.4555,0.462,0.4674,0.4766,0.4852,0.4862,0.4893,0.4906,0.4971,0.5098,0.4943,0.4945,0.4965,0.5251,0.5168,0.5181,0.5099,0.5103,0.5107,0.5227,0,0.4159,0.4237,0.4278,0.437,0.4417,0.4476,0.456,0.4643,0.4711,0.4808,0.4865,0.4961,0.4924,0.4968,0.503,0.5106,0.5157,0.5067,0.5154,0.5157,0.5053,0.5204,0.5041,0.513,0.5246,0.5249,0.5252,0,0.4187,0.4238,0.4316,0.4421,0.4448,0.4509,0.4635,0.4719,0.4861,0.4919,0.5015,0.5066,0.5196,0.5135,0.5294,0.524,0.5252,0.5286,0.529,0.52,0.5113,0.5039,0.5161,0.5044,0.5282,0.528,0.5277,0,0.4156,0.4266,0.4319,0.4356,0.4481,0.4528,0.4601,0.4741,0.4828,0.4998,0.5086,0.5217,0.5306,0.537,0.5424,0.5378,0.5583,0.5515,0.5444,0.5437,0.531,0.5285,0.5313,0.561,0.561,0.561,0.5609,0,0.4171,0.4219,0.4302,0.4334,0.4422,0.451,0.4626,0.4727,0.4882,0.5007,0.5132,0.5259,0.5375,0.5489,0.5498,0.5553,0.5635,0.5499,0.5485,0.5333,0.5309,0.5207,0.5168,0.5614,0.5613,0.5612,0.5612,0,0.4142,0.419,0.4261,0.437,0.4407,0.4468,0.4623,0.4712,0.4872,0.5045,0.5109,0.5331,0.5497,0.5581,0.5714,0.565,0.5559,0.5679,0.548,0.544,0.5224,0.5196,0.5031,0.4877,0.5632,0.5631,0.563,0,0.4134,0.4163,0.4264,0.4302,0.435,0.4449,0.4525,0.4686,0.4787,0.508,0.5159,0.539,0.5526,0.5699,0.5671,0.5692,0.5532,0.5515,0.5388,0.5231,0.5192,0.4972,0.4837,0.5254,0.525,0.5247,0.5245,0,0.4134,0.4158,0.4213,0.4286,0.435,0.4435,0.4548,0.4619,0.4826,0.4974,0.5177,0.5315,0.5506,0.5483,0.5525,0.551,0.5273,0.5446,0.5356,0.4976,0.4671,0.4507,0.5139,0.5217,0.522,0.5222,0.5223,0.5224,0.4123,0.4151,0.421,0.4271,0.434,0.4397,0.4416,0.4551,0.4683,0.4842,0.5049,0.5144,0.5268,0.5318,0.5274,0.5104,0.5058,0.4953,0.4958,0.4766,0.4533,0.509,0.51,0.5102,0.5104,0.5106,0.5107,0,0.4104,0.4135,0.4194,0.4241,0.4257,0.4322,0.441,0.4385,0.4462,0.4639,0.4757,0.4803,0.4837,0.4885,0.4823,0.4641,0.441,0.454,0.4221,0.4131,0.4714,0.4614,0.4431,0.4431,0.4431,0.4431,0.4432,0.4432,0.4096,0.412,0.4138,0.4137,0.4152,0.4111,0.411,0.41,0.4159,0.4167,0.4153,0.4221,0.4464,0.4627,0.4483,0.4366,0.4023,0.3862,0.3826,0.4298,0.4335,0.4371,0.4267,0.4014,0.4014,0.3047,0.304,0.3035]},{"header":{"parameterUnit":"m.s-1","parameterCategory":2,"la1":30.2991,"la2":30.254,"lo1":-89.0895,"lo2":-89.0444,"dy":0.0017,"dx":0.0017,"nx":28,"ny":28,"refTime":"2025-11-22T09:00:00:Z","depth":"0","parameterNumber":3,"parameterNumberName":"V-component_of_CURRENTS"},"data":[0,0,0,0,0,0,0,0,0,0,0,0,0,0,0,0,0,0,0,0,0,0,0,0,0,0,0,0,0,0,0,0,0,0,0,0,0,0,0,0,0,0,0,0,0,0,0,0,0,0,0,0,0,0,0,0,0,0,0.0102,0.0102,0,0.003,0.0029,0.0028,-0.0022,-0.0022,-0.0022,-0.0022,-0.0114,-0.0116,-0.0118,0,0,0,0,0,0,0,0,0,0,0,0,0,0.0133,0.0133,0.0102,0.0102,0.0101,0.003,0.0029,0.0028,-0.0022,-0.0022,-0.0022,-0.0022,-0.0113,-0.0116,-0.0118,0,0,0,0,0,0,0,0,0,0,0,0,0,0.0094,0.0133,0.0102,0.0069,0.0066,0.0031,0.0029,0.0028,-0.0021,-0.0022,-0.0022,-0.0022,-0.0112,-0.0115,-0.0119,-0.0135,0,0,-0.0129,-0.0131,0,0,0,0,0,0,0,0,0.0097,0.0093,0.0075,0.0072,0.0068,0.0015,0.0006,-0.0027,-0.0021,0.0009,-0.0022,-0.0022,-0.0071,-0.0078,-0.0094,-0.0139,-0.0143,-0.013,-0.0132,-0.0133,-0.0134,0,0,0,0,0,0,0,0.0099,0.0095,0.0072,0.0074,0.007,0.0036,0.0031,-0.0001,-0.003,0.0007,0.0003,-0.0001,-0.0073,-0.009,-0.0096,-0.0144,-0.013,-0.0133,-0.0135,-0.0136,-0.0202,-0.0202,0,0,0,0,0,0,0.0116,0.0098,0.0074,0.007,0.0084,0.0036,0.003,0.003,-0.003,-0.0038,-0.0001,-0.0003,-0.0084,-0.0092,-0.01,-0.0095,-0.0133,-0.0136,-0.0138,-0.0202,-0.0202,-0.0202,0,0,0,0,0,0,0.0117,0.0115,0.0077,0.0084,0.0077,0.0037,0.0037,0.0029,0.0018,-0.0035,-0.0044,-0.0003,-0.0085,-0.0095,-0.0118,-0.01,-0.0138,-0.0141,-0.0203,-0.0202,-0.0202,-0.0104,0,0,0,0,0,0,0.0119,0.0116,0.0121,0.0085,0.0077,0.0071,0.0037,0.0028,0.0016,0.0012,-0.004,-0.0049,-0.0086,-0.0113,-0.0122,-0.0105,-0.0144,-0.0203,-0.0202,-0.0202,-0.0107,-0.01,-0.0094,0,0,0,0,0,0.012,0.0136,0.0122,0.0119,0.0086,0.0072,0.0065,0.0033,0.0017,0.002,-0.0018,-0.0047,-0.0116,-0.0115,-0.0126,-0.011,-0.0203,-0.0203,-0.0202,-0.011,-0.0101,-0.0094,0,0,0,0,0,0,0.015,0.0132,0.0116,0.0124,0.0105,0.0065,0.0065,0.0042,0.0014,0.001,-0.0043,-0.0054,-0.0071,-0.0106,-0.0104,-0.013,-0.0165,-0.0166,-0.0092,-0.0084,-0.0077,-0.0043,-0.0147,0,0,0,0,0,0.0161,0.0168,0.0141,0.0147,0.0142,0.0104,0.0093,0.0075,0.0045,0.0032,-0.0006,-0.0046,-0.0077,-0.0091,-0.0127,-0.0137,-0.0157,-0.0136,-0.0129,-0.0123,-0.0104,-0.0119,-0.0111,-0.0199,-0.0199,-0.0199,0,0,0.0173,0.0164,0.0166,0.0154,0.0134,0.0144,0.0097,0.0092,0.01,0.0027,0.0023,-0.0025,-0.0077,-0.009,-0.01,-0.0114,-0.0109,-0.0122,-0.0116,-0.0101,-0.0117,-0.0109,-0.0101,-0.0199,-0.0199,-0.0199,0,0,0.0211,0.0195,0.0217,0.0209,0.0194,0.0176,0.018,0.0148,0.0134,0.012,0.0071,0.0036,-0.0012,-0.0042,-0.0065,-0.0043,-0.0075,-0.0056,0.0012,-0.0002,0.0005,0.0012,0.0005,0.001,-0.0048,-0.0048,-0.0048,0,0.0227,0.0253,0.0221,0.0242,0.0248,0.0199,0.0231,0.0208,0.0172,0.0172,0.0133,0.0068,0.0012,0.0009,0.0009,-0.0025,-0.0032,-0.0011,0.001,0.0016,0.0021,0.0011,0.0016,-0.0043,-0.0043,-0.0044,-0.0044,0,0.0283,0.0304,0.0317,0.0332,0.0333,0.035,0.0325,0.032,0.0291,0.0268,0.025,0.017,0.0135,0.0106,0.0061,0.0074,0.0058,0.0019,-0.0003,0.0036,0.0023,0.0026,-0.0036,-0.0038,-0.0039,-0.004,0,0,0.0326,0.0354,0.0361,0.0392,0.0386,0.0401,0.0415,0.0423,0.0452,0.0387,0.0419,0.0328,0.0281,0.0252,0.0188,0.0169,0.0179,0.012,0.0117,0.0128,0.0166,0.0136,0.0136,0.0154,0.0155,0.0156,0.0145,0,0.0384,0.0457,0.0449,0.0519,0.0559,0.0528,0.0551,0.0547,0.0532,0.0546,0.0461,0.0451,0.0339,0.0327,0.0288,0.0223,0.0192,0.0187,0.0113,0.0111,0.0092,0.014,0.0152,0.0142,0.0147,0.0148,0.0148,0,0.0447,0.0493,0.0574,0.0634,0.0648,0.0673,0.0721,0.0741,0.0735,0.072,0.0688,0.0623,0.058,0.0474,0.0377,0.0387,0.0282,0.0214,0.0211,0.0156,0.0087,0.01,0.0147,-0.0084,0.0152,0.0152,0.0152,0,0.0511,0.0583,0.0658,0.0675,0.0725,0.0754,0.0781,0.0793,0.0844,0.084,0.0882,0.0791,0.0777,0.0643,0.0475,0.0437,0.0382,0.0304,0.0174,0.017,0.0151,0.0145,-0.0019,0.0222,0.0222,0.0222,0.0223,0,0.0583,0.0643,0.0694,0.0735,0.0836,0.0835,0.094,0.0945,0.0994,0.1098,0.0982,0.1052,0.0821,0.075,0.0563,0.0403,0.044,0.0207,0.0173,0.0184,0.0181,-0.0047,-0.0187,0.0222,0.0222,0.0222,0.0222,0,0.0642,0.067,0.0767,0.0838,0.0869,0.0943,0.1056,0.1134,0.1161,0.1301,0.1309,0.1266,0.1188,0.0953,0.0756,0.0539,0.0233,0.0282,0.0313,0.0282,-0.0075,-0.0209,-0.041,-0.0514,0.0147,0.0147,0.0146,0,0.0679,0.0733,0.0849,0.0922,0.0958,0.107,0.1153,0.1208,0.1311,0.1461,0.1544,0.1505,0.1532,0.1229,0.0832,0.0505,0.0252,0.0255,0.0156,-0.0073,-0.0248,-0.0359,-0.044,0.0171,0.017,0.017,0.017,0,0.0758,0.0792,0.0876,0.1023,0.1125,0.1262,0.1388,0.1498,0.1604,0.1754,0.1943,0.199,0.1702,0.1385,0.0882,0.0636,0.0085,0.0237,-0.0004,-0.024,-0.0365,-0.0487,0.0153,0.0167,0.0168,0.0168,0.0168,0.0168,0.0816,0.089,0.0995,0.1138,0.1265,0.1431,0.157,0.1738,0.1956,0.2218,0.2242,0.239,0.1873,0.1218,0.0823,0.0082,0.006,-0.0157,-0.0295,-0.0382,-0.0506,0.0131,0.01,0.0099,0.0099,0.0099,0.0099,0,0.0889,0.0972,0.1107,0.1276,0.1424,0.1478,0.1715,0.1884,0.2178,0.2448,0.2647,0.2497,0.186,0.118,0.0171,-0.0361,-0.056,-0.0645,-0.0808,-0.0862,-0.0288,-0.0312,-0.0427,-0.0427,-0.0427,-0.0427,-0.0426,-0.0426,0.0931,0.1057,0.1124,0.137,0.15,0.1722,0.1871,0.2145,0.2381,0.2745,0.2875,0.2918,0.2373,0.0596,-0.0582,-0.0839,-0.1235,-0.1333,-0.1516,-0.1144,-0.111,-0.1077,-0.1133,-0.1418,-0.142,-0.2018,-0.2025,-0.2029]}],[{"header":{"parameterUnit":"m.s-1","parameterCategory":2,"la1":30.2991,"la2":30.254,"lo1":-89.0895,"lo2":-89.0444,"dy":0.0017,"dx":0.0017,"nx":28,"ny":28,"refTime":"2025-11-22T09:00:00:Z","depth":"2","parameterNumber":2,"parameterNumberName":"U-component_of_CURRENTS"},"data":[0,0,0,0,0,0,0,0,0,0,0,0,0,0,0,0,0,0,0,0,0,0,0,0,0,0,0,0,0,0,0,0,0,0,0,0,0,0,0,0,0,0,0,0,0,0,0,0,0,0,0,0,0,0,0,0,0,0,0.3124,0.3125,0,0.3167,0.3167,0.3167,0.3182,0.3182,0.3182,0.3182,0.3205,0.3206,0.3206,0,0,0,0,0,0,0,0,0,0,0,0,0,0.306,0.3061,0.3124,0.3125,0.3125,0.3167,0.3167,0.3167,0.3182,0.3182,0.3182,0.3182,0.3205,0.3206,0.3206,0,0,0,0,0,0,0,0,0,0,0,0,0,0.3092,0.3061,0.3124,0.3139,0.3141,0.3166,0.3167,0.3167,0.3182,0.3182,0.3182,0.3182,0.3205,0.3206,0.3207,0.3212,0,0,0.3209,0.321,0,0,0,0,0,0,0,0,0.309,0.3094,0.3136,0.3138,0.314,0.3171,0.3153,0.3182,0.3182,0.3164,0.3182,0.3182,0.3193,0.3195,0.32,0.3213,0.3214,0.3209,0.321,0.321,0.3211,0,0,0,0,0,0,0,0.3088,0.3092,0.3139,0.3137,0.3139,0.3146,0.315,0.3159,0.3176,0.3166,0.3167,0.3175,0.3194,0.3199,0.3201,0.3214,0.3209,0.321,0.3211,0.3211,0.3305,0.3307,0,0,0,0,0,0,0.3087,0.309,0.3137,0.314,0.3117,0.3147,0.3152,0.3159,0.3176,0.318,0.3175,0.3176,0.3198,0.32,0.3202,0.3271,0.321,0.3211,0.3212,0.3303,0.3306,0.3308,0,0,0,0,0,0,0.3085,0.309,0.3136,0.3118,0.3124,0.3148,0.3157,0.316,0.318,0.3184,0.3187,0.3193,0.3198,0.3201,0.3236,0.3269,0.3212,0.3212,0.3301,0.3304,0.3307,0.3369,0,0,0,0,0,0,0.3083,0.3089,0.3099,0.3118,0.3125,0.3165,0.3157,0.3161,0.3185,0.3187,0.3201,0.3202,0.3198,0.3235,0.3237,0.3269,0.3213,0.3299,0.3302,0.3306,0.3364,0.3373,0.3381,0,0,0,0,0,0.308,0.3091,0.3099,0.3105,0.3136,0.3166,0.3171,0.3186,0.3186,0.3202,0.3219,0.3202,0.3259,0.3237,0.3239,0.3273,0.3297,0.3301,0.3306,0.336,0.3372,0.3381,0,0,0,0,0,0,0.3065,0.3095,0.3103,0.3122,0.315,0.317,0.3188,0.3196,0.3221,0.3227,0.3224,0.3228,0.3274,0.3266,0.3241,0.3313,0.3277,0.3282,0.3318,0.3328,0.3337,0.3351,0.3214,0,0,0,0,0,0.3067,0.3086,0.3115,0.3132,0.3148,0.3171,0.3186,0.32,0.3223,0.3234,0.3245,0.3263,0.3292,0.3304,0.3324,0.3356,0.3374,0.3381,0.339,0.3397,0.3412,0.3474,0.3489,0.3322,0.3322,0.3322,0,0,0.3067,0.3085,0.3096,0.3131,0.3153,0.3186,0.318,0.3214,0.3247,0.3232,0.328,0.3295,0.331,0.3355,0.3374,0.3352,0.3456,0.3403,0.3408,0.342,0.348,0.3496,0.3511,0.3325,0.3325,0.3324,0,0,0.3075,0.3094,0.3115,0.3144,0.3185,0.3204,0.3219,0.3253,0.3277,0.3321,0.3329,0.3369,0.3395,0.3424,0.3438,0.3506,0.3503,0.3508,0.3558,0.3617,0.3631,0.3644,0.3693,0.371,0.3507,0.3507,0.3507,0,0.3075,0.3102,0.3127,0.3158,0.3187,0.3216,0.3251,0.3284,0.3326,0.3354,0.3346,0.3425,0.3434,0.3504,0.3531,0.3527,0.3555,0.3514,0.3629,0.3641,0.3653,0.3701,0.3718,0.3511,0.351,0.351,0.3509,0,0.3099,0.3128,0.3145,0.3196,0.3233,0.3267,0.3319,0.3357,0.3386,0.3417,0.3493,0.3519,0.3567,0.3578,0.3575,0.3667,0.3659,0.3635,0.36,0.3674,0.3719,0.3736,0.3516,0.3514,0.3513,0.3512,0,0,0.3079,0.3147,0.3154,0.3183,0.3256,0.3284,0.3355,0.3422,0.3478,0.352,0.3593,0.3649,0.3669,0.3689,0.3699,0.3747,0.3855,0.3731,0.3732,0.3776,0.399,0.3933,0.3945,0.3851,0.3855,0.3857,0.3989,0,0.309,0.3141,0.3182,0.3242,0.3276,0.3335,0.3398,0.3468,0.3535,0.3614,0.366,0.3737,0.3711,0.3752,0.3798,0.385,0.3903,0.3822,0.3915,0.3918,0.3856,0.3964,0.3648,0.3735,0.4005,0.4008,0.401,0,0.3094,0.3133,0.3186,0.3266,0.3289,0.3334,0.3446,0.3515,0.3636,0.3692,0.3777,0.3821,0.3919,0.3881,0.4006,0.3957,0.3986,0.401,0.4015,0.3954,0.3893,0.3705,0.3755,0.4038,0.4036,0.4034,0.4032,0,0.3053,0.3131,0.3169,0.3197,0.3298,0.334,0.3408,0.3534,0.3613,0.3764,0.3833,0.394,0.4019,0.4072,0.4126,0.4083,0.4253,0.4194,0.4169,0.4165,0.3911,0.3878,0.4287,0.4287,0.4287,0.4287,0.4286,0,0.3037,0.307,0.315,0.3172,0.3236,0.3326,0.3425,0.3514,0.3664,0.3756,0.3875,0.3968,0.4075,0.417,0.4185,0.4246,0.4306,0.4213,0.421,0.3924,0.3893,0.4157,0.414,0.4292,0.429,0.4289,0.4289,0,0.2987,0.3036,0.3084,0.3182,0.3214,0.3269,0.3419,0.349,0.3652,0.3784,0.3837,0.4031,0.4165,0.4249,0.4368,0.4333,0.4385,0.4382,0.4042,0.3996,0.4239,0.4224,0.4377,0.4376,0.4376,0.4375,0.4375,0,0.2959,0.2973,0.307,0.3101,0.3145,0.3241,0.3295,0.3461,0.3558,0.3799,0.3853,0.4053,0.4147,0.4324,0.4328,0.4374,0.4419,0.4095,0.3954,0.4275,0.4256,0.4241,0.4227,0.3641,0.3634,0.3629,0.3625,0,0.2914,0.2947,0.2994,0.3042,0.3092,0.315,0.3261,0.3332,0.3524,0.3631,0.379,0.3892,0.4096,0.4029,0.4127,0.4097,0.4061,0.3993,0.4436,0.3671,0.3592,0.357,0.3578,0.3579,0.3584,0.3587,0.3589,0.3591,0.2872,0.2886,0.2933,0.2969,0.3021,0.3042,0.3046,0.3165,0.3258,0.3391,0.3602,0.3654,0.3763,0.3763,0.367,0.3613,0.3884,0.3699,0.371,0.3727,0.3622,0.3548,0.3506,0.351,0.3514,0.3517,0.3519,0,0.2798,0.2817,0.2852,0.2858,0.2844,0.2931,0.2993,0.2954,0.2981,0.3159,0.3266,0.3092,0.3105,0.3195,0.3048,0.3075,0.2987,0.2942,0.2785,0.2837,0.2883,0.2727,0.2377,0.2373,0.2369,0.2365,0,0,0.2756,0.2747,0.2753,0.2678,0.2692,0.2628,0.264,0.259,0.2665,0.2656,0.2695,0.2992,0.3135,0.271,0.2677,0.249,0.2626,0.2398,0.3332,0.3203,0.3241,0.3362,0.3189,0,0,0,0,0]},{"header":{"parameterUnit":"m.s-1","parameterCategory":2,"la1":30.2991,"la2":30.254,"lo1":-89.0895,"lo2":-89.0444,"dy":0.0017,"dx":0.0017,"nx":28,"ny":28,"refTime":"2025-11-22T09:00:00:Z","depth":"2","parameterNumber":3,"parameterNumberName":"V-component_of_CURRENTS"},"data":[0,0,0,0,0,0,0,0,0,0,0,0,0,0,0,0,0,0,0,0,0,0,0,0,0,0,0,0,0,0,0,0,0,0,0,0,0,0,0,0,0,0,0,0,0,0,0,0,0,0,0,0,0,0,0,0,0,0,0.0122,0.0121,0,0.006,0.0059,0.0058,0.0011,0.0011,0.0011,0.001,-0.0065,-0.0067,-0.0068,0,0,0,0,0,0,0,0,0,0,0,0,0,0.0146,0.0146,0.0122,0.0121,0.0121,0.006,0.0059,0.0058,0.0011,0.0011,0.0011,0.001,-0.0064,-0.0066,-0.0068,0,0,0,0,0,0,0,0,0,0,0,0,0,0.0114,0.0146,0.0122,0.0091,0.0088,0.006,0.0059,0.0057,0.0011,0.0011,0.001,0.001,-0.0064,-0.0066,-0.0069,-0.0077,0,0,-0.0077,-0.0078,0,0,0,0,0,0,0,0,0.0116,0.0113,0.0097,0.0093,0.009,0.0044,0.004,0.0013,0.0011,0.0039,0.001,0.001,-0.0028,-0.0034,-0.0047,-0.008,-0.0083,-0.0077,-0.0079,-0.008,-0.008,0,0,0,0,0,0,0,0.0118,0.0115,0.0096,0.0096,0.0092,0.0062,0.0057,0.0034,0.0007,0.0036,0.0033,0.0029,-0.003,-0.0044,-0.0049,-0.0084,-0.0077,-0.0079,-0.0081,-0.0082,-0.0124,-0.0124,0,0,0,0,0,0,0.0132,0.0117,0.0098,0.0094,0.0104,0.0062,0.0057,0.0058,0.0007,-0.0,0.0029,0.0027,-0.0039,-0.0046,-0.0052,-0.0043,-0.008,-0.0082,-0.0084,-0.0124,-0.0124,-0.0123,0,0,0,0,0,0,0.0133,0.0131,0.01,0.0105,0.0099,0.0063,0.0064,0.0057,0.0047,0.0002,-0.0006,0.0027,-0.004,-0.0048,-0.0064,-0.0047,-0.0083,-0.0086,-0.0125,-0.0124,-0.0124,-0.004,0,0,0,0,0,0,0.0134,0.0132,0.0137,0.0106,0.01,0.0097,0.0064,0.0056,0.0046,0.0042,-0.0002,-0.001,-0.0041,-0.006,-0.0067,-0.0051,-0.0088,-0.0126,-0.0125,-0.0124,-0.0043,-0.0036,-0.003,0,0,0,0,0,0.0135,0.0152,0.0138,0.0135,0.0108,0.0098,0.0092,0.0063,0.0046,0.0051,0.0018,-0.0008,-0.006,-0.0062,-0.007,-0.0055,-0.0126,-0.0125,-0.0124,-0.0046,-0.0037,-0.003,0,0,0,0,0,0,0.0163,0.0147,0.0132,0.0141,0.0125,0.0091,0.0091,0.0071,0.0048,0.0044,-0.0002,-0.0011,-0.0022,-0.005,-0.0051,-0.0066,-0.0098,-0.0098,-0.0035,-0.0028,-0.0022,-0.0001,-0.009,0,0,0,0,0,0.0172,0.018,0.0157,0.0163,0.0159,0.0125,0.0117,0.01,0.0075,0.0064,0.0032,-0.0001,-0.0024,-0.0034,-0.0063,-0.0067,-0.0102,-0.0064,-0.0058,-0.0052,-0.0042,-0.0082,-0.0078,-0.012,-0.012,-0.012,0,0,0.0184,0.0176,0.0179,0.0169,0.0152,0.0164,0.0119,0.0116,0.0124,0.006,0.0059,0.0019,-0.0022,-0.0029,-0.0036,-0.0049,-0.0058,-0.0051,-0.0045,-0.0038,-0.0081,-0.0077,-0.0073,-0.0119,-0.012,-0.012,0,0,0.022,0.0205,0.0227,0.0222,0.0208,0.0192,0.0197,0.0169,0.0155,0.0147,0.0103,0.0076,0.0039,0.0015,-0.0002,0.0022,-0.0027,0.0012,0.0066,0.0027,0.003,0.0032,-0.0004,-0.0006,0.0019,0.0019,0.002,0,0.0234,0.0259,0.0231,0.0252,0.0259,0.0214,0.0244,0.0225,0.0194,0.019,0.0159,0.0102,0.0062,0.0058,0.0062,0.0038,0.0007,0.0043,0.0036,0.0038,0.0039,0.0,-0.0002,0.0024,0.0023,0.0023,0.0022,0,0.0289,0.0307,0.032,0.0336,0.0339,0.0356,0.0334,0.0329,0.0301,0.0278,0.0256,0.0193,0.0163,0.0142,0.0109,0.0104,0.0076,0.0046,0.0021,0.0048,0.0006,0.0001,0.003,0.0028,0.0027,0.0026,0,0,0.0326,0.0356,0.036,0.0389,0.0388,0.0402,0.0415,0.0419,0.0436,0.0379,0.0392,0.0327,0.0283,0.026,0.0208,0.017,0.0144,0.0119,0.0115,0.0091,0.0059,0.0029,0.002,0.0112,0.0112,0.0112,0.0027,0,0.0379,0.0447,0.0442,0.0507,0.0544,0.0517,0.0537,0.053,0.0509,0.0505,0.0427,0.0413,0.0332,0.0319,0.0268,0.018,0.0136,0.0169,0.0029,0.0025,0.0001,0.0016,0.0049,-0.0024,0.0023,0.0022,0.0021,0,0.0434,0.0478,0.0553,0.0607,0.062,0.0646,0.068,0.0696,0.0671,0.0652,0.0612,0.0545,0.0486,0.0408,0.0267,0.0293,0.0186,0.0104,0.0099,0.004,-0.0013,-0.0046,-0.0035,0.0014,0.0014,0.0015,0.0015,0,0.0487,0.0555,0.0624,0.0642,0.069,0.0715,0.0738,0.0738,0.0776,0.0749,0.0763,0.0663,0.0631,0.0481,0.0302,0.0287,0.014,0.0096,-0.0035,-0.0038,-0.0053,-0.0057,-0.0008,-0.0008,-0.0008,-0.0008,-0.0008,0,0.055,0.0604,0.0655,0.0694,0.0783,0.0785,0.0871,0.0871,0.0897,0.0964,0.0847,0.0864,0.0647,0.0531,0.0348,0.0151,0.0171,-0.002,-0.006,-0.0023,-0.0024,-0.0026,-0.0027,-0.0011,-0.001,-0.001,-0.0009,0,0.0598,0.0626,0.0715,0.0783,0.0811,0.0876,0.0974,0.1037,0.1039,0.1122,0.112,0.1024,0.0873,0.0641,0.0407,0.023,0.0029,-0.005,0.0008,-0.0023,-0.0137,-0.0133,-0.0201,-0.0203,-0.0204,-0.0205,-0.0206,0,0.0629,0.0677,0.0785,0.0852,0.0888,0.0988,0.1061,0.1105,0.1191,0.1229,0.1281,0.1154,0.1092,0.0726,0.039,0.0066,0.0023,-0.012,-0.0154,-0.0123,-0.0156,-0.0149,-0.0143,-0.0141,-0.0142,-0.0142,-0.0142,0,0.0696,0.0726,0.0805,0.0941,0.1035,0.1159,0.1272,0.1367,0.1434,0.1485,0.1537,0.1482,0.1141,0.0812,0.0359,0.0143,-0.007,-0.0138,-0.0116,-0.0096,-0.0074,-0.0103,-0.0098,-0.0145,-0.0145,-0.0145,-0.0145,-0.0145,0.0743,0.081,0.091,0.1043,0.1161,0.1317,0.1436,0.1556,0.169,0.1789,0.1735,0.1659,0.128,0.0703,0.0305,-0.0105,-0.0085,-0.0228,-0.0224,-0.0221,-0.0197,-0.0179,-0.0265,-0.0265,-0.0266,-0.0266,-0.0266,0,0.0808,0.0885,0.1008,0.1166,0.1304,0.1361,0.1569,0.1679,0.1842,0.1914,0.1942,0.1584,0.1204,0.0768,0.0152,-0.0216,-0.0232,-0.0323,-0.0267,-0.0261,-0.0256,-0.0233,-0.0312,-0.0313,-0.0315,-0.0316,0,0,0.0845,0.0966,0.1029,0.1257,0.1377,0.1573,0.1705,0.1845,0.1945,0.2004,0.1967,0.1884,0.1344,0.0892,0.0387,0.0032,-0.0024,-0.0028,0.005,0.0182,0.0191,-0.016,-0.0112,0,0,0,0,0]}],[{"header":{"parameterUnit":"m.s-1","parameterCategory":2,"la1":30.2991,"la2":30.254,"lo1":-89.0895,"lo2":-89.0444,"dy":0.0017,"dx":0.0017,"nx":28,"ny":28,"refTime":"2025-11-22T09:00:00:Z","depth":"4","parameterNumber":2,"parameterNumberName":"U-component_of_CURRENTS"},"data":[0,0,0,0,0,0,0,0,0,0,0,0,0,0,0,0,0,0,0,0,0,0,0,0,0,0,0,0,0,0,0,0,0,0,0,0,0,0,0,0,0,0,0,0,0,0,0,0,0,0,0,0,0,0,0,0,0,0,0.2008,0.2009,0,0.2084,0.2085,0.2086,0.2159,0.216,0.2161,0.2162,0.2253,0.2255,0.2256,0,0,0,0,0,0,0,0,0,0,0,0,0,0.1911,0.1913,0.2008,0.2009,0.201,0.2084,0.2085,0.2086,0.2158,0.216,0.2161,0.2162,0.2253,0.2254,0.2256,0,0,0,0,0,0,0,0,0,0,0,0,0,0.1965,0.1913,0.2008,0.2057,0.2062,0.2084,0.2085,0.2086,0.2158,0.216,0.2161,0.2163,0.2252,0.2254,0.2256,0.2235,0,0,0.2263,0.2263,0,0,0,0,0,0,0,0,0.1962,0.1968,0.2048,0.2054,0.206,0.2116,0.2085,0.2138,0.2158,0.2119,0.2162,0.2164,0.2209,0.2214,0.2222,0.2239,0.2243,0.2263,0.2264,0.2265,0.2265,0,0,0,0,0,0,0,0.1958,0.1965,0.2036,0.205,0.2056,0.2071,0.208,0.2095,0.2152,0.2123,0.2129,0.214,0.2212,0.2219,0.2224,0.2245,0.2263,0.2265,0.2266,0.2267,0.2393,0.2395,0,0,0,0,0,0,0.1952,0.1962,0.2033,0.2038,0.2016,0.2071,0.2082,0.2094,0.2152,0.2163,0.2139,0.2143,0.2215,0.2222,0.2228,0.233,0.2265,0.2267,0.2268,0.239,0.2393,0.2395,0,0,0,0,0,0,0.195,0.1958,0.203,0.2003,0.2014,0.2072,0.2085,0.2095,0.2148,0.2164,0.2176,0.2187,0.2217,0.2225,0.2284,0.233,0.2268,0.227,0.2388,0.2391,0.2394,0.2455,0,0,0,0,0,0,0.1946,0.1956,0.1983,0.2003,0.2016,0.2071,0.2084,0.2095,0.2151,0.2159,0.2208,0.2216,0.2219,0.2281,0.2286,0.2332,0.2271,0.2385,0.2389,0.2393,0.2451,0.246,0.2468,0,0,0,0,0,0.1943,0.1965,0.1984,0.1994,0.2044,0.2072,0.2081,0.2125,0.2152,0.2179,0.2219,0.2217,0.231,0.2284,0.229,0.2337,0.2383,0.2388,0.2393,0.2447,0.2458,0.2468,0,0,0,0,0,0,0.1938,0.1975,0.1996,0.2031,0.2064,0.2087,0.2122,0.2147,0.2199,0.2223,0.2237,0.2247,0.2317,0.2318,0.2289,0.2386,0.2349,0.2355,0.2388,0.2399,0.2408,0.2411,0.2273,0,0,0,0,0,0.1947,0.1979,0.2009,0.2043,0.2063,0.21,0.2127,0.2156,0.2194,0.2221,0.2255,0.2295,0.2332,0.236,0.2387,0.2434,0.2446,0.2471,0.248,0.2487,0.2495,0.2554,0.2569,0.2411,0.2411,0.2411,0,0,0.1955,0.1982,0.2002,0.2046,0.2078,0.211,0.2122,0.2174,0.2215,0.222,0.23,0.2328,0.2352,0.2411,0.2443,0.2423,0.2541,0.2493,0.2499,0.2503,0.256,0.2576,0.2589,0.2414,0.2413,0.2413,0,0,0.1971,0.2013,0.2041,0.2071,0.2127,0.2148,0.2172,0.222,0.2264,0.2326,0.2349,0.2406,0.2458,0.2487,0.2504,0.2577,0.2585,0.2597,0.2646,0.2703,0.2716,0.2728,0.2767,0.2782,0.2602,0.2602,0.2603,0,0.1984,0.2018,0.2055,0.2087,0.2119,0.2169,0.2203,0.2248,0.2314,0.2353,0.2366,0.2471,0.2492,0.2563,0.2595,0.2598,0.2629,0.26,0.2714,0.2726,0.2737,0.2774,0.279,0.2606,0.2606,0.2605,0.2605,0,0.2004,0.2049,0.2071,0.2128,0.2168,0.2208,0.2265,0.2326,0.2384,0.2423,0.2521,0.2556,0.262,0.2639,0.2641,0.2736,0.2733,0.2717,0.2684,0.2757,0.2791,0.2806,0.2611,0.261,0.2609,0.2608,0,0,0.1982,0.2068,0.208,0.2115,0.2195,0.2223,0.2307,0.2382,0.2449,0.2523,0.2608,0.2676,0.2712,0.2735,0.2757,0.2806,0.291,0.2806,0.2807,0.2838,0.3041,0.2857,0.2855,0.2923,0.2926,0.2928,0.3035,0,0.199,0.2047,0.2094,0.2163,0.2195,0.2272,0.2342,0.2425,0.2504,0.2601,0.2666,0.2754,0.2745,0.2799,0.2848,0.2902,0.2953,0.2882,0.2971,0.2974,0.2796,0.2867,0.2938,0.3046,0.3049,0.3051,0.3053,0,0.1984,0.2026,0.2089,0.2182,0.2207,0.2265,0.2389,0.2458,0.2596,0.2667,0.2767,0.2827,0.2935,0.2911,0.3036,0.3,0.3032,0.3056,0.306,0.2875,0.2816,0.2958,0.308,0.3078,0.3076,0.3074,0.3072,0,0.1927,0.2019,0.2071,0.2102,0.2216,0.2279,0.2353,0.2485,0.2564,0.2728,0.281,0.2927,0.3015,0.3078,0.314,0.3112,0.3261,0.3219,0.3079,0.3066,0.3173,0.3159,0.3303,0.3303,0.3303,0.3302,0.3302,0,0.1889,0.1937,0.2059,0.2084,0.2168,0.226,0.237,0.2466,0.2619,0.2707,0.2847,0.2934,0.3069,0.3164,0.3189,0.3181,0.3305,0.3098,0.3085,0.3196,0.3184,0.3183,0.3168,0.3306,0.3305,0.3305,0.3304,0,0.1812,0.1892,0.1959,0.2092,0.2143,0.2205,0.2374,0.2442,0.2608,0.2734,0.2799,0.2987,0.31,0.32,0.3314,0.3227,0.3247,0.3213,0.3342,0.3332,0.3001,0.2988,0.3053,0.3047,0.3043,0.3039,0.3035,0,0.1769,0.18,0.1949,0.1991,0.2059,0.2173,0.2244,0.2422,0.2491,0.2732,0.2771,0.2963,0.3061,0.3075,0.319,0.3228,0.319,0.3173,0.306,0.2997,0.2978,0.2973,0.2966,0.3028,0.3027,0.3026,0.3024,0,0.1687,0.1763,0.1815,0.1906,0.199,0.2064,0.2181,0.2224,0.2414,0.26,0.2684,0.2759,0.2881,0.2958,0.3019,0.3036,0.3165,0.3123,0.3131,0.3024,0.2967,0.2952,0.2951,0.3008,0.301,0.3012,0.3013,0,0.163,0.1646,0.1728,0.1792,0.1885,0.1909,0.1995,0.2076,0.2176,0.2434,0.2462,0.2663,0.2846,0.2862,0.2918,0.2923,0.2868,0.2756,0.2783,0.2802,0.267,0.2557,0.247,0,0,0,0,0,0.1558,0.1556,0.1601,0.1652,0.1734,0.1791,0.1924,0.2012,0.2212,0.2206,0.2325,0.2426,0.2519,0.2634,0.259,0.2806,0.2875,0.274,0.2758,0.2918,0.2936,0.2804,0,0,0,0,0,0,0.1503,0.1541,0.155,0.1518,0.153,0.1599,0.1678,0.1811,0.1821,0.2039,0.2108,0.2279,0.2412,0.2522,0.2545,0.2578,0.2537,0.2876,0.2869,0.2907,0.2924,0.2939,0.2809,0,0,0,0,0]},{"header":{"parameterUnit":"m.s-1","parameterCategory":2,"la1":30.2991,"la2":30.254,"lo1":-89.0895,"lo2":-89.0444,"dy":0.0017,"dx":0.0017,"nx":28,"ny":28,"refTime":"2025-11-22T09:00:00:Z","depth":"4","parameterNumber":3,"parameterNumberName":"V-component_of_CURRENTS"},"data":[0,0,0,0,0,0,0,0,0,0,0,0,0,0,0,0,0,0,0,0,0,0,0,0,0,0,0,0,0,0,0,0,0,0,0,0,0,0,0,0,0,0,0,0,0,0,0,0,0,0,0,0,0,0,0,0,0,0,0.0121,0.012,0,0.008,0.008,0.0079,0.0048,0.0047,0.0047,0.0047,-0.0006,-0.0007,-0.0009,0,0,0,0,0,0,0,0,0,0,0,0,0,0.0134,0.0134,0.0121,0.012,0.012,0.008,0.008,0.0079,0.0048,0.0047,0.0047,0.0047,-0.0006,-0.0007,-0.0009,0,0,0,0,0,0,0,0,0,0,0,0,0,0.0113,0.0134,0.0121,0.01,0.0098,0.0081,0.008,0.0079,0.0048,0.0047,0.0047,0.0047,-0.0005,-0.0007,-0.0009,-0.0014,0,0,-0.0014,-0.0015,0,0,0,0,0,0,0,0,0.0115,0.0113,0.0104,0.0102,0.0099,0.007,0.0065,0.0048,0.0048,0.0066,0.0047,0.0047,0.0019,0.0015,0.0007,-0.0016,-0.0019,-0.0015,-0.0016,-0.0017,-0.0017,0,0,0,0,0,0,0,0.0116,0.0114,0.0104,0.0103,0.0101,0.008,0.0077,0.0061,0.0044,0.0064,0.0062,0.0059,0.0017,0.0009,0.0005,-0.0019,-0.0015,-0.0016,-0.0017,-0.0018,-0.0045,-0.0045,0,0,0,0,0,0,0.0125,0.0116,0.0105,0.0103,0.0107,0.0081,0.0077,0.0079,0.0044,0.0039,0.006,0.0058,0.0012,0.0008,0.0003,0.0013,-0.0017,-0.0018,-0.0019,-0.0046,-0.0045,-0.0045,0,0,0,0,0,0,0.0126,0.0125,0.0107,0.0109,0.0105,0.0081,0.0083,0.0078,0.0073,0.0041,0.0035,0.006,0.0012,0.0006,-0.0004,0.001,-0.0019,-0.0021,-0.0046,-0.0046,-0.0045,0.0022,0,0,0,0,0,0,0.0127,0.0126,0.0131,0.011,0.0105,0.0106,0.0083,0.0077,0.0072,0.0069,0.0039,0.0034,0.0011,-0.0001,-0.0006,0.0007,-0.0022,-0.0047,-0.0046,-0.0045,0.0019,0.0024,0.0029,0,0,0,0,0,0.0127,0.014,0.0131,0.013,0.0113,0.0107,0.0103,0.0084,0.0072,0.0077,0.0055,0.0035,-0.0,-0.0002,-0.0008,0.0005,-0.0047,-0.0046,-0.0045,0.0017,0.0023,0.0029,0,0,0,0,0,0,0.0147,0.0138,0.0127,0.0136,0.0126,0.0102,0.0104,0.009,0.0076,0.0074,0.0041,0.0034,0.0029,0.0007,0.0006,-0.0002,-0.0027,-0.0028,0.0022,0.0027,0.0032,0.0046,-0.0024,0,0,0,0,0,0.0155,0.0162,0.0146,0.0153,0.0151,0.0128,0.0123,0.0112,0.0095,0.0088,0.0066,0.0043,0.0027,0.002,0.0,-0.0,-0.0036,0.0002,0.0008,0.0012,0.0018,-0.0025,-0.0024,-0.0042,-0.0042,-0.0042,0,0,0.0164,0.0159,0.0163,0.0158,0.0147,0.0158,0.0124,0.0124,0.0132,0.0085,0.0088,0.006,0.003,0.0027,0.0023,0.0012,-0.0002,0.0013,0.0017,0.0021,-0.0024,-0.0023,-0.0021,-0.0042,-0.0042,-0.0042,0,0,0.0192,0.0184,0.0201,0.0198,0.0191,0.018,0.0184,0.0166,0.0158,0.0155,0.0123,0.0103,0.008,0.0061,0.0049,0.007,0.0025,0.0064,0.0104,0.0062,0.0063,0.0063,0.0021,0.0017,0.0069,0.0069,0.0069,0,0.0203,0.0223,0.0204,0.0221,0.0228,0.0197,0.0221,0.0209,0.0189,0.0186,0.0166,0.0125,0.0097,0.0093,0.01,0.0082,0.0049,0.0086,0.0069,0.0068,0.0068,0.0024,0.0019,0.0072,0.0072,0.0072,0.0071,0,0.0244,0.026,0.0271,0.0286,0.029,0.0305,0.0292,0.029,0.0273,0.0255,0.024,0.0195,0.0173,0.0159,0.0137,0.0126,0.01,0.0078,0.0056,0.0074,0.0026,0.002,0.0077,0.0076,0.0075,0.0074,0,0,0.0268,0.0296,0.0301,0.0324,0.0328,0.034,0.0354,0.0358,0.037,0.0332,0.0338,0.0296,0.0262,0.0245,0.0207,0.017,0.0135,0.013,0.0126,0.0093,0.0039,0.0022,0.0013,0.0109,0.0108,0.0108,0.0008,0,0.0306,0.0359,0.0361,0.0414,0.0442,0.0428,0.0446,0.0443,0.0427,0.0421,0.0363,0.0353,0.0298,0.029,0.0243,0.0164,0.0121,0.0164,0.0022,0.0018,0.0004,0.0006,0.0106,0.0002,0.0001,-0.0,-0.0001,0,0.0344,0.0379,0.044,0.0487,0.0498,0.0523,0.0551,0.0565,0.0544,0.053,0.0497,0.0447,0.0394,0.0342,0.021,0.0239,0.0149,0.0077,0.0071,0.0029,-0.0011,-0.0021,-0.0013,-0.0012,-0.0011,-0.0011,-0.001,0,0.0375,0.0434,0.0489,0.0505,0.055,0.0575,0.0598,0.0597,0.0625,0.0601,0.0608,0.0523,0.0491,0.0365,0.0216,0.0213,0.0059,0.0034,-0.007,-0.0073,-0.0057,-0.0057,-0.0064,-0.0063,-0.0063,-0.0063,-0.0063,0,0.0414,0.0459,0.0512,0.0543,0.0617,0.0626,0.0693,0.0696,0.0714,0.0752,0.067,0.0666,0.0494,0.0384,0.0239,0.0066,0.0072,-0.0064,-0.0099,-0.0027,-0.0022,-0.0062,-0.0061,-0.0067,-0.0066,-0.0065,-0.0065,0,0.0438,0.047,0.0542,0.0606,0.0635,0.0688,0.0774,0.082,0.0821,0.0867,0.0866,0.0773,0.0625,0.044,0.0232,0.0106,-0.0063,-0.0128,-0.0033,-0.0062,-0.0175,-0.0169,-0.0252,-0.0254,-0.0255,-0.0256,-0.0257,0,0.0454,0.0493,0.0591,0.0647,0.0684,0.0769,0.0833,0.0873,0.0926,0.0931,0.0953,0.0831,0.0741,0.0442,0.0233,-0.0052,-0.0096,-0.0187,-0.0187,-0.0168,-0.0194,-0.0186,-0.0178,-0.0259,-0.0259,-0.0259,-0.026,0,0.0488,0.0521,0.0584,0.0699,0.0782,0.0885,0.0973,0.102,0.1064,0.1068,0.1029,0.087,0.0698,0.0449,0.0226,0.0021,-0.0129,-0.02,-0.0199,-0.02,-0.0177,-0.02,-0.0191,-0.0264,-0.0263,-0.0263,-0.0262,0,0.0511,0.0559,0.0642,0.0746,0.0855,0.0961,0.1012,0.1071,0.112,0.1118,0.1099,0.091,0.08,0.0486,0.0282,0.0075,0.0016,-0.0053,-0.0061,-0.0059,0.0019,0.0079,0.0042,0,0,0,0,0,0.0534,0.0592,0.0685,0.08,0.0909,0.0979,0.1089,0.1129,0.1168,0.1156,0.1133,0.0972,0.0664,0.0527,0.0319,0.0238,-0.0032,-0.0016,-0.0119,-0.0287,-0.0282,-0.0225,0,0,0,0,0,0,0.0549,0.0635,0.0683,0.0825,0.091,0.1039,0.1114,0.1147,0.1139,0.114,0.0983,0.0908,0.0609,0.0784,0.0311,0.0247,0.015,-0.0158,-0.0163,-0.029,-0.0285,-0.0281,-0.0221,0,0,0,0,0]}]]